Wind_Speed
13 13 13 12 12 12 12 12 12 12 12 12 12 12 12 12 12 12 12 12 13 13 14 13 13 14 14 14 15 15 15 16 15 15 15 15 16 16 16 15 16 16 16
14 14 13 12 13 13 13 13 13 12 12 11 12 12 13 13 13 13 14 14 14 15 15 15 15 14 15 16 17 17 16 17 17 17 17 17 17 17 17 16 16 17 18
14 14 14 13 13 13 13 14 13 13 12 13 13 13 13 13 14 14 15 15 15 15 15 15 15 15 16 16 17 17 17 18 18 18 18 18 18 18 18 18 18 18 19
14 15 14 14 13 14 14 13 14 13 13 13 13 14 14 14 14 15 15 15 16 16 16 16 16 16 17 17 18 18 18 18 19 19 18 19 19 19 19 19 19 19 20
15 15 15 15 15 14 14 14 14 14 14 14 14 14 14 14 15 15 16 16 16 17 17 17 17 18 18 18 18 18 18 18 19 19 19 19 20 21 20 20 20 21 22
14 14 15 15 15 15 15 14 14 15 14 15 15 15 15 15 16 16 16 16 17 17 17 17 18 18 19 18 18 18 19 20 20 21 21 21 20 21 21 22 22 22 23
15 15 15 15 16 16 16 16 15 15 15 15 15 15 15 16 16 16 16 16 16 16 16 17 17 18 19 19 18 18 19 20 20 21 22 22 21 21 21 22 22 23 24
16 17 16 16 17 17 17 16 15 16 16 16 16 16 16 16 17 16 16 16 16 17 17 17 17 17 18 18 19 19 19 19 20 21 22 22 22 21 22 22 23 24 24
17 17 17 16 17 17 17 17 16 16 17 17 16 17 17 17 17 18 17 17 17 18 18 19 19 19 19 19 19 19 20 20 21 22 22 23 23 23 24 24 24 24 25
18 18 17 17 18 18 17 17 17 17 17 17 18 18 19 19 18 18 18 19 19 19 19 20 21 20 20 20 19 19 20 20 20 21 22 23 23 24 25 25 25 25 25
19 19 19 18 18 18 18 18 18 18 18 18 18 19 19 18 18 19 19 20 20 20 20 21 21 21 21 20 20 20 20 21 22 22 22 23 23 24 25 25 26 26 27
19 18 18 17 18 18 18 19 18 19 18 19 19 18 18 18 19 19 20 21 21 21 21 21 21 21 21 21 21 22 21 21 22 22 22 23 24 25 26 26 26 27 27
17 17 18 18 17 18 18 19 19 19 19 19 19 18 19 19 20 20 22 22 22 22 22 22 22 22 22 23 22 22 22 23 22 22 23 23 25 26 26 27 27 28 28
17 17 18 19 18 19 19 19 19 19 20 20 20 20 21 21 21 21 21 22 23 23 23 22 22 21 22 22 22 22 23 22 23 22 23 24 25 26 27 27 27 27 28
19 19 19 19 20 20 20 19 20 20 20 20 21 22 22 22 22 22 22 22 22 22 22 22 22 22 22 22 22 23 22 22 23 23 23 24 25 26 26 27 27 27 28
19 20 20 20 21 21 20 21 21 21 21 22 22 22 23 23 23 23 22 22 21 21 21 22 22 22 22 22 22 22 23 24 24 24 24 24 25 25 26 27 27 28 28
19 20 20 20 21 22 22 22 22 22 22 23 23 23 23 22 22 22 22 22 22 21 21 21 22 22 23 23 22 22 23 24 24 24 24 24 24 25 26 27 27 28 28
20 20 21 22 22 22 22 22 22 22 22 23 23 23 23 23 23 23 23 23 22 21 21 21 22 23 23 24 23 23 23 24 24 25 25 25 26 26 26 26 27 28 28
21 21 22 22 22 22 22 22 22 22 22 22 23 23 23 23 24 24 23 23 22 22 22 22 22 23 24 24 24 24 24 24 24 24 25 26 26 26 25 26 26 27 28
22 22 22 22 22 22 22 22 22 22 23 23 24 24 24 24 25 24 23 23 23 23 23 23 23 23 23 23 24 24 24 24 24 24 25 25 25 26 25 26 26 27 28
23 23 22 22 21 22 22 23 23 23 23 23 24 23 24 25 25 24 24 23 24 24 24 23 23 23 23 23 23 24 24 24 24 24 24 24 24 24 24 25 26 26 27
23 22 21 21 21 22 22 22 23 24 23 24 23 23 24 25 25 24 24 24 24 24 24 24 24 24 23 23 23 23 23 24 23 23 24 25 25 25 24 25 26 27 27
21 21 22 21 22 22 22 23 24 24 24 23 23 24 25 24 24 24 24 24 24 24 24 24 24 24 24 24 24 23 23 24 24 24 24 24 25 24 24 25 26 26 26
22 22 22 22 22 22 23 24 24 24 24 24 24 24 23 23 24 24 24 24 24 24 24 25 25 24 25 25 25 24 24 24 24 25 25 26 25 24 24 25 25 24 24
21 21 22 22 22 22 23 23 24 24 24 24 24 24 24 24 24 24 25 24 24 24 24 25 25 25 25 25 26 26 25 25 25 25 25 25 25 25 25 25 25 24 24
23 23 22 23 23 23 23 23 23 24 24 24 24 25 24 24 24 24 24 24 25 25 25 25 25 25 25 26 26 27 26 26 26 25 25 25 26 26 26 25 24 24 24
Wind_Direction
252 251 247 246 244 244 245 248 251 257 260 259 260 259 257 258 259 263 268 270 270 272 274 273 269 267 266 264 262 260 259 258 255 254 253 254 255 255 256 254 249 248 247
250 250 247 246 245 246 249 249 250 256 257 258 260 258 256 259 262 265 268 269 271 272 275 277 274 271 268 267 267 264 263 260 258 258 256 254 254 255 255 255 251 251 251
250 248 249 247 244 247 250 251 253 254 254 257 260 258 257 260 264 267 271 273 273 275 276 275 273 272 272 272 270 266 264 262 261 259 257 256 254 254 254 255 253 254 253
249 249 251 249 247 248 251 255 254 254 257 259 259 260 261 263 267 271 274 275 276 277 275 271 269 271 272 274 271 268 267 263 262 262 260 259 257 255 255 255 256 255 255
253 254 252 250 250 249 251 254 255 257 259 259 259 261 262 266 271 275 275 276 276 277 276 272 271 272 272 274 271 269 268 266 263 262 262 261 260 258 257 258 259 259 259
257 259 255 252 250 251 254 256 258 258 261 261 261 264 267 271 274 275 277 277 277 277 277 276 274 274 274 272 269 270 269 268 265 262 261 260 259 260 260 260 261 262 261
256 259 257 254 252 253 255 257 260 261 261 263 266 269 269 272 274 276 278 278 278 278 279 279 279 276 275 271 270 272 271 269 265 262 261 259 258 260 262 262 263 263 262
256 256 257 258 255 254 256 258 260 263 262 265 268 269 269 271 275 278 279 278 278 281 281 281 282 279 277 274 272 273 272 268 266 264 263 260 260 260 263 264 265 262 262
255 255 255 257 256 257 257 256 260 263 264 266 269 270 270 272 277 279 280 278 279 281 281 281 282 280 278 276 274 273 271 269 268 267 266 263 262 262 263 266 268 265 262
255 254 253 255 257 257 256 256 257 261 264 267 269 271 272 274 276 276 277 278 279 280 280 281 281 280 279 277 274 272 271 270 270 270 269 267 264 264 265 266 267 266 266
253 252 255 257 256 254 253 253 257 260 263 266 269 272 273 275 276 275 277 279 279 279 279 279 280 278 279 278 276 274 273 272 270 270 269 268 266 265 265 267 267 267 268
253 252 254 255 254 252 252 254 257 260 263 267 271 272 273 276 279 278 279 280 279 279 279 278 277 276 276 278 277 277 276 274 273 271 268 267 267 266 266 267 268 269 269
258 256 252 254 256 256 256 259 260 261 264 267 269 272 275 277 280 281 282 281 281 280 279 278 275 276 276 277 277 276 275 273 272 271 268 268 268 267 267 268 269 269 269
260 257 254 253 255 257 260 263 264 264 266 267 269 271 274 276 278 282 284 284 281 280 279 279 277 276 277 277 277 276 275 274 272 271 270 270 271 269 268 269 270 271 270
260 259 256 255 256 258 263 265 267 267 268 269 270 271 273 275 276 280 284 285 283 279 278 278 277 278 278 278 277 277 276 276 275 274 273 273 273 272 270 270 271 271 271
261 259 257 259 259 261 262 266 269 269 270 272 274 275 275 274 277 280 281 282 282 280 278 278 277 278 278 280 280 278 276 277 276 275 274 274 274 273 271 271 272 273 273
264 262 263 265 266 264 265 267 270 270 271 272 274 275 277 276 278 279 280 281 282 280 278 277 276 278 279 279 281 279 278 277 276 277 276 276 277 275 274 273 273 273 274
268 268 269 269 269 268 268 269 269 270 271 272 273 274 275 275 278 278 278 279 280 279 279 277 276 278 280 279 281 281 279 279 277 278 278 278 278 276 275 274 274 273 274
270 270 270 270 270 269 269 269 269 269 271 272 273 275 275 276 277 277 276 276 278 278 278 277 278 278 279 279 279 280 281 281 282 282 279 278 278 277 276 275 276 276 276
272 270 270 271 270 270 269 268 269 271 271 273 274 274 274 275 276 276 275 275 276 277 278 278 280 280 279 280 280 281 283 283 283 283 283 281 278 277 277 275 277 278 278
272 271 271 270 270 270 269 268 269 271 271 272 275 277 276 274 274 274 274 274 275 276 277 277 279 280 280 281 282 283 284 284 285 283 282 282 281 278 277 277 278 279 280
271 271 270 270 271 271 270 269 270 272 271 273 275 277 277 275 272 271 273 274 275 275 276 277 278 278 280 282 283 284 285 285 287 286 284 284 282 280 278 279 281 282 280
269 268 270 273 273 272 271 270 271 273 272 271 273 275 277 275 273 272 273 274 274 274 275 277 277 278 279 281 283 284 284 284 285 285 286 288 286 284 283 283 284 284 282
268 269 270 271 274 274 274 274 273 273 271 271 273 274 274 274 274 274 275 276 276 275 276 276 277 277 277 279 281 283 285 285 285 285 286 288 288 287 285 286 289 288 287
268 269 269 271 272 273 276 277 275 272 271 272 274 274 273 274 274 274 275 277 277 277 278 277 277 277 278 279 280 282 283 283 283 285 286 288 286 285 285 286 286 287 288
269 268 269 271 272 273 276 277 275 272 271 273 274 273 272 274 274 274 275 277 278 279 279 279 278 277 278 278 280 281 282 282 282 284 285 286 286 285 287 286 284 285 287
Height
5864 5864 5865 5866 5866 5866 5867 5868 5868 5869 5869 5869 5869 5870 5870 5870 5870 5870 5870 5870 5870 5870 5870 5869 5869 5869 5869 5869 5869 5869 5870 5870 5871 5871 5872 5872 5873 5873 5874 5874 5875 5876 5877
5861 5862 5862 5863 5863 5864 5864 5865 5866 5866 5866 5866 5867 5867 5867 5868 5868 5867 5867 5867 5867 5867 5867 5866 5866 5866 5866 5866 5866 5866 5866 5866 5867 5867 5868 5869 5869 5870 5870 5871 5872 5872 5873
5858 5858 5859 5860 5860 5861 5862 5862 5863 5863 5863 5864 5864 5864 5864 5864 5864 5864 5864 5864 5864 5864 5863 5863 5862 5862 5862 5862 5861 5862 5862 5862 5863 5863 5864 5864 5865 5866 5866 5867 5868 5868 5869
5854 5855 5856 5856 5857 5858 5858 5859 5859 5860 5860 5860 5861 5861 5861 5861 5861 5861 5861 5860 5860 5860 5859 5859 5859 5858 5858 5858 5857 5857 5857 5858 5858 5859 5859 5860 5861 5861 5862 5863 5863 5864 5864
5851 5852 5852 5853 5854 5855 5855 5856 5856 5856 5857 5857 5857 5857 5857 5858 5858 5857 5857 5856 5856 5855 5855 5855 5854 5854 5854 5853 5853 5853 5853 5854 5854 5854 5855 5855 5856 5857 5857 5858 5859 5859 5860
5848 5848 5849 5849 5850 5851 5852 5853 5853 5853 5853 5853 5853 5854 5854 5854 5854 5853 5853 5852 5852 5851 5851 5850 5850 5849 5849 5849 5849 5848 5849 5849 5849 5849 5850 5850 5851 5851 5852 5852 5853 5854 5854
5844 5845 5845 5846 5847 5848 5849 5849 5849 5850 5850 5850 5850 5850 5850 5850 5850 5849 5849 5848 5848 5847 5846 5846 5845 5845 5844 5844 5844 5844 5844 5843 5844 5844 5844 5845 5845 5846 5846 5846 5847 5847 5848
5840 5841 5842 5842 5843 5844 5845 5845 5846 5846 5846 5846 5846 5846 5846 5846 5845 5845 5845 5844 5843 5843 5842 5841 5840 5840 5839 5839 5838 5838 5838 5838 5838 5838 5839 5839 5840 5840 5840 5840 5841 5841 5841
5837 5837 5838 5839 5839 5840 5841 5841 5842 5842 5842 5842 5842 5842 5842 5842 5841 5841 5840 5840 5839 5838 5837 5836 5836 5835 5834 5833 5833 5833 5833 5833 5833 5833 5833 5833 5833 5834 5834 5834 5834 5834 5835
5833 5833 5834 5835 5835 5836 5836 5837 5837 5837 5837 5837 5837 5837 5837 5837 5837 5836 5836 5835 5834 5833 5832 5831 5830 5830 5829 5828 5828 5827 5827 5827 5827 5827 5827 5827 5827 5827 5828 5828 5828 5828 5828
5828 5828 5829 5830 5830 5831 5832 5832 5832 5833 5833 5833 5833 5833 5832 5832 5832 5831 5831 5830 5829 5828 5827 5826 5825 5824 5824 5823 5822 5822 5822 5821 5821 5821 5821 5821 5821 5821 5821 5821 5821 5821 5821
5823 5824 5824 5825 5826 5826 5827 5827 5828 5828 5828 5828 5828 5828 5828 5827 5827 5826 5825 5824 5823 5822 5821 5820 5820 5819 5818 5817 5817 5816 5816 5815 5815 5814 5814 5814 5814 5814 5814 5814 5814 5813 5813
5819 5819 5820 5821 5821 5822 5822 5822 5823 5823 5824 5823 5823 5823 5822 5822 5822 5821 5820 5819 5817 5817 5816 5815 5814 5813 5812 5811 5811 5810 5809 5809 5808 5808 5808 5807 5807 5807 5806 5806 5806 5806 5805
5815 5815 5816 5816 5817 5817 5817 5818 5818 5818 5818 5818 5818 5818 5817 5817 5816 5815 5814 5813 5811 5811 5809 5809 5808 5807 5806 5805 5804 5804 5803 5802 5802 5801 5801 5800 5800 5799 5799 5799 5798 5798 5797
5810 5811 5811 5811 5812 5812 5812 5813 5813 5813 5813 5813 5812 5812 5811 5811 5810 5809 5808 5806 5806 5805 5804 5802 5801 5801 5800 5799 5798 5797 5796 5796 5795 5794 5794 5793 5793 5792 5791 5791 5790 5789 5789
5805 5806 5806 5806 5806 5806 5806 5807 5807 5807 5807 5807 5806 5806 5805 5805 5804 5803 5802 5800 5799 5798 5798 5797 5796 5795 5794 5793 5792 5791 5790 5789 5788 5787 5787 5786 5785 5784 5784 5783 5782 5781 5780
5800 5800 5801 5801 5800 5800 5800 5800 5800 5800 5800 5800 5800 5799 5799 5798 5797 5796 5796 5795 5794 5793 5792 5791 5790 5789 5788 5787 5785 5784 5783 5782 5781 5781 5780 5779 5778 5777 5776 5775 5774 5773 5772
5795 5795 5794 5794 5794 5794 5794 5794 5794 5793 5793 5793 5793 5793 5792 5792 5791 5790 5789 5788 5787 5786 5786 5785 5784 5783 5781 5780 5779 5778 5776 5775 5774 5773 5772 5771 5770 5769 5768 5767 5766 5764 5763
5789 5788 5788 5788 5788 5787 5787 5787 5787 5787 5786 5786 5786 5786 5785 5785 5785 5784 5783 5782 5781 5780 5779 5778 5777 5776 5775 5774 5772 5771 5770 5769 5767 5766 5765 5764 5762 5761 5760 5759 5757 5756 5755
5782 5782 5781 5781 5781 5780 5780 5780 5780 5780 5780 5780 5779 5779 5778 5778 5778 5777 5776 5775 5775 5774 5773 5772 5771 5770 5768 5767 5766 5764 5763 5762 5760 5759 5757 5756 5755 5753 5752 5751 5749 5748 5746
5775 5775 5775 5774 5774 5773 5773 5774 5773 5773 5773 5773 5772 5771 5771 5770 5770 5770 5769 5769 5768 5767 5766 5765 5764 5763 5762 5761 5759 5758 5756 5755 5753 5752 5750 5749 5747 5746 5744 5743 5741 5740 5738
5769 5768 5768 5767 5767 5767 5767 5766 5766 5766 5766 5766 5765 5764 5764 5763 5763 5762 5762 5761 5761 5760 5759 5758 5757 5756 5756 5754 5753 5751 5750 5748 5747 5746 5744 5742 5740 5738 5737 5735 5734 5732 5730
5762 5762 5761 5761 5760 5760 5760 5759 5759 5759 5759 5758 5758 5757 5757 5756 5755 5755 5755 5754 5754 5753 5752 5751 5750 5750 5749 5748 5746 5745 5743 5742 5740 5739 5737 5735 5733 5731 5729 5727 5726 5723 5722
5756 5755 5755 5755 5754 5754 5753 5752 5751 5751 5751 5751 5750 5750 5749 5749 5748 5748 5747 5747 5746 5745 5744 5744 5743 5742 5741 5740 5739 5738 5736 5735 5734 5732 5730 5728 5726 5724 5722 5720 5718 5716 5714
5749 5749 5749 5748 5747 5747 5746 5745 5744 5743 5743 5743 5742 5742 5741 5741 5741 5740 5740 5739 5739 5738 5737 5736 5735 5735 5734 5732 5731 5730 5729 5728 5727 5725 5723 5721 5719 5717 5715 5713 5711 5709 5706
5743 5742 5742 5741 5740 5740 5739 5738 5736 5735 5735 5735 5734 5734 5734 5733 5733 5732 5732 5732 5731 5730 5729 5728 5728 5727 5726 5725 5724 5723 5722 5720 5719 5718 5716 5714 5712 5710 5708 5706 5703 5701 5699